When you browse on this site, cookies collect data to enhance your experience and personalize the content and advertising you see.
Visit our Privacy Policy to learn more. By continuing to use the site, you agree to this use of cookies and data.
  • In Czech Republic
  • List of Countries
  • For 7 days
  • Water Temperature
  • Weather Map
  • Weather Widgets
  • user-avatar
    Login

    Hourly Weather Darwin

    Today, 18 August, Sunday

    Time Temperature Precipitation Wind Pressure Humidity
    00:00 +24°C° 0 mm 2 mps 761 mmHg 85%
    01:00 +23°C° 0 mm 2 mps 761 mmHg 86%
    02:00 +23°C° 0 mm 2 mps 760 mmHg 86%
    03:00 +23°C° 0 mm 2 mps 760 mmHg 85%
    04:00 +23°C° 0 mm 2 mps 760 mmHg 84%
    05:00 +23°C° 0 mm 2 mps 760 mmHg 83%
    06:00 +23°C° 0 mm 2 mps 761 mmHg 82%
    07:00 +25°C° 0 mm 2 mps 761 mmHg 73%
    08:00 +28°C° 0 mm 2 mps 761 mmHg 63%
    09:00 +31°C° 0 mm 2 mps 761 mmHg 52%
    10:00 +34°C° 0 mm 2 mps 761 mmHg 48%
    11:00 +36°C° 0 mm 2 mps 760 mmHg 43%
    12:00 +38°C° 0 mm 2 mps 760 mmHg 38%
    13:00 +36°C° 0 mm 3 mps 759 mmHg 42%
    14:00 +35°C° 0 mm 3 mps 758 mmHg 47%
    15:00 +33°C° 0 mm 3 mps 758 mmHg 54%
    16:00 +31°C° 0 mm 3 mps 758 mmHg 57%
    17:00 +30°C° 0 mm 2 mps 758 mmHg 60%
    18:00 +29°C° 0 mm 2 mps 758 mmHg 63%
    19:00 +28°C° 0 mm 2 mps 758 mmHg 66%
    20:00 +27°C° 0 mm 3 mps 759 mmHg 68%
    21:00 +25°C° 0 mm 3 mps 760 mmHg 71%
    22:00 +25°C° 0 mm 2 mps 760 mmHg 72%
    23:00 +25°C° 0 mm 2 mps 760 mmHg 73%

    Tomorrow, 19 August, Monday

    Time Temperature Precipitation Wind Pressure Humidity
    00:00 +24°C° 0 mm 1 mps 760 mmHg 74%
    01:00 +24°C° 0 mm 1 mps 760 mmHg 76%
    02:00 +24°C° 0 mm 2 mps 760 mmHg 78%
    03:00 +24°C° 0 mm 3 mps 759 mmHg 80%
    04:00 +24°C° 0 mm 2 mps 760 mmHg 84%
    05:00 +24°C° 0 mm 2 mps 760 mmHg 89%
    06:00 +24°C° 0 mm 2 mps 760 mmHg 93%
    07:00 +26°C° 0 mm 2 mps 760 mmHg 81%
    08:00 +29°C° 0 mm 2 mps 761 mmHg 70%
    09:00 +31°C° 0 mm 2 mps 761 mmHg 59%
    10:00 +34°C° 0 mm 3 mps 760 mmHg 50%
    11:00 +36°C° 0 mm 3 mps 760 mmHg 42%
    12:00 +38°C° 0 mm 4 mps 759 mmHg 34%
    13:00 +37°C° 0 mm 4 mps 759 mmHg 38%
    14:00 +36°C° 0 mm 4 mps 758 mmHg 42%
    15:00 +35°C° 0 mm 4 mps 757 mmHg 45%
    16:00 +34°C° 0 mm 4 mps 758 mmHg 48%
    17:00 +33°C° 0 mm 4 mps 758 mmHg 51%
    18:00 +31°C° 0 mm 3 mps 758 mmHg 54%
    19:00 +30°C° 0.1 mm 3 mps 759 mmHg 58%
    20:00 +29°C° 0.1 mm 2 mps 760 mmHg 62%
    21:00 +28°C° 0.1 mm 2 mps 761 mmHg 66%
    22:00 +28°C° 0.2 mm 2 mps 761 mmHg 66%
    23:00 +28°C° 0.2 mm 3 mps 761 mmHg 67%

    Day after tomorrow, 20 August, Tuesday

    Time Temperature Precipitation Wind Pressure Humidity
    00:00 +27°C° 0.2 mm 3 mps 761 mmHg 67%
    01:00 +26°C° 0 mm 4 mps 761 mmHg 61%
    02:00 +25°C° 0 mm 5 mps 761 mmHg 56%
    03:00 +23°C° 0 mm 7 mps 761 mmHg 50%
    04:00 +22°C° 0 mm 7 mps 761 mmHg 48%
    05:00 +22°C° 0 mm 8 mps 761 mmHg 46%
    06:00 +21°C° 0 mm 8 mps 761 mmHg 44%
    07:00 +23°C° 0 mm 8 mps 762 mmHg 37%
    08:00 +24°C° 0 mm 8 mps 762 mmHg 29%
    09:00 +27°C° 0 mm 8 mps 763 mmHg 22%
    10:00 +29°C° 0 mm 8 mps 762 mmHg 20%
    11:00 +33°C° 0 mm 7 mps 762 mmHg 19%
    12:00 +35°C° 0 mm 6 mps 761 mmHg 17%
    13:00 +36°C° 0 mm 6 mps 760 mmHg 17%
    14:00 +36°C° 0 mm 5 mps 759 mmHg 17%
    15:00 +37°C° 0 mm 5 mps 758 mmHg 17%
    16:00 +36°C° 0 mm 4 mps 759 mmHg 19%
    17:00 +34°C° 0 mm 3 mps 759 mmHg 21%
    18:00 +33°C° 0 mm 3 mps 759 mmHg 22%
    19:00 +30°C° 0 mm 3 mps 760 mmHg 24%
    20:00 +28°C° 0 mm 4 mps 760 mmHg 27%
    21:00 +26°C° 0 mm 4 mps 761 mmHg 29%
    22:00 +25°C° 0 mm 5 mps 761 mmHg 29%
    23:00 +24°C° 0 mm 6 mps 761 mmHg 30%

    21 August, Wednesday

    Time Temperature Precipitation Wind Pressure Humidity
    00:00 +23°C° 0 mm 8 mps 761 mmHg 30%
    01:00 +22°C° 0 mm 8 mps 761 mmHg 34%
    02:00 +21°C° 0 mm 7 mps 761 mmHg 38%
    03:00 +18°C° 0 mm 7 mps 760 mmHg 42%
    04:00 +18°C° 0 mm 7 mps 761 mmHg 45%
    05:00 +18°C° 0 mm 7 mps 761 mmHg 48%
    06:00 +17°C° 0 mm 7 mps 761 mmHg 52%
    07:00 +20°C° 0 mm 8 mps 762 mmHg 44%
    08:00 +22°C° 0 mm 8 mps 762 mmHg 37%
    09:00 +24°C° 0 mm 8 mps 762 mmHg 29%
    10:00 +27°C° 0 mm 7 mps 762 mmHg 25%
    11:00 +29°C° 0 mm 6 mps 761 mmHg 21%
    12:00 +33°C° 0 mm 5 mps 760 mmHg 18%
    13:00 +34°C° 0 mm 5 mps 760 mmHg 17%
    14:00 +35°C° 0 mm 4 mps 759 mmHg 17%
    15:00 +35°C° 0 mm 4 mps 758 mmHg 17%
    16:00 +33°C° 0 mm 3 mps 758 mmHg 22%
    17:00 +30°C° 0 mm 3 mps 758 mmHg 27%
    18:00 +28°C° 0 mm 2 mps 758 mmHg 32%
    19:00 +27°C° 0 mm 2 mps 759 mmHg 38%
    20:00 +25°C° 0 mm 3 mps 760 mmHg 45%
    21:00 +22°C° 0 mm 3 mps 760 mmHg 51%
    22:00 +21°C° 0 mm 3 mps 760 mmHg 47%
    23:00 +20°C° 0 mm 3 mps 761 mmHg 43%

    22 August, Thursday

    Time Temperature Precipitation Wind Pressure Humidity
    00:00 +19°C° 0 mm 4 mps 761 mmHg 39%
    01:00 +20°C° 0 mm 4 mps 760 mmHg 46%
    02:00 +20°C° 0 mm 5 mps 760 mmHg 54%
    03:00 +20°C° 0 mm 6 mps 760 mmHg 61%
    04:00 +19°C° 0 mm 6 mps 760 mmHg 71%
    05:00 +17°C° 0 mm 5 mps 760 mmHg 81%
    06:00 +17°C° 0 mm 5 mps 761 mmHg 91%
    07:00 +20°C° 0 mm 5 mps 761 mmHg 78%
    08:00 +22°C° 0 mm 6 mps 761 mmHg 65%
    09:00 +26°C° 0 mm 6 mps 762 mmHg 52%
    10:00 +28°C° 0 mm 6 mps 761 mmHg 45%
    11:00 +32°C° 0 mm 5 mps 761 mmHg 38%
    12:00 +34°C° 0 mm 4 mps 760 mmHg 31%
    13:00 +35°C° 0 mm 5 mps 759 mmHg 30%
    14:00 +36°C° 0 mm 5 mps 759 mmHg 29%
    15:00 +36°C° 0 mm 5 mps 758 mmHg 28%
    16:00 +34°C° 0 mm 5 mps 758 mmHg 36%
    17:00 +32°C° 0 mm 4 mps 758 mmHg 45%
    18:00 +28°C° 0 mm 4 mps 758 mmHg 53%
    19:00 +27°C° 0 mm 3 mps 759 mmHg 59%
    20:00 +25°C° 0 mm 3 mps 760 mmHg 66%
    21:00 +24°C° 0 mm 3 mps 761 mmHg 72%
    22:00 +23°C° 0 mm 2 mps 761 mmHg 74%
    23:00 +21°C° 0 mm 2 mps 761 mmHg 75%

    23 August, Friday

    Time Temperature Precipitation Wind Pressure Humidity
    00:00 +22°C° 0 mm 1 mps 761 mmHg 76%
    01:00 +20°C° 0 mm 2 mps 761 mmHg 75%
    02:00 +20°C° 0 mm 2 mps 760 mmHg 74%
    03:00 +20°C° 0 mm 3 mps 760 mmHg 73%
    04:00 +20°C° 0 mm 3 mps 760 mmHg 75%
    05:00 +20°C° 0 mm 3 mps 761 mmHg 76%
    06:00 +20°C° 0 mm 3 mps 761 mmHg 78%
    07:00 +22°C° 0 mm 3 mps 761 mmHg 66%
    08:00 +26°C° 0 mm 3 mps 762 mmHg 53%
    09:00 +28°C° 0 mm 4 mps 762 mmHg 41%
    10:00 +31°C° 0 mm 3 mps 761 mmHg 35%
    11:00 +34°C° 0 mm 3 mps 761 mmHg 30%
    12:00 +36°C° 0 mm 3 mps 760 mmHg 24%
    13:00 +36°C° 0 mm 3 mps 760 mmHg 26%
    14:00 +36°C° 0 mm 4 mps 759 mmHg 28%
    15:00 +35°C° 0 mm 4 mps 758 mmHg 30%
    16:00 +33°C° 0 mm 4 mps 758 mmHg 38%
    17:00 +30°C° 0 mm 3 mps 759 mmHg 46%
    18:00 +28°C° 0 mm 2 mps 759 mmHg 54%
    19:00 +26°C° 0 mm 2 mps 759 mmHg 60%
    20:00 +25°C° 0 mm 3 mps 760 mmHg 65%
    21:00 +22°C° 0 mm 3 mps 760 mmHg 71%
    22:00 +23°C° 0 mm 2 mps 761 mmHg 75%
    23:00 +21°C° 0 mm 2 mps 761 mmHg 78%
    Show more